Topeka, KS

6:57 PM CST on January 24, 2017 (GMT -0600)
Billard Municipal

Weather History for KTOP - March, 2012

Change the Weather History Date:

Friday, March 9, 2012

  Actual Average Record
Temperature  
Mean Temperature 46 °F 42 °F  
Max Temperature 65 °F 54 °F 80 °F (1986)
Min Temperature 26 °F 31 °F 3 °F (1891)
Degree Days  
Heating Degree Days 19 23  
Month to date heating degree days 146 218  
Since 1 July heating degree days 3528 4185  
Cooling Degree Days 0 0  
Month to date cooling degree days 0 0  
Year to date cooling degree days 0 0  
Moisture  
Dew Point 24 °F    
Average Humidity 54    
Maximum Humidity 92    
Minimum Humidity 16    
Precipitation  
Precipitation 0.00 in 0.07 in 1.33 in (1907)
Month to date precipitation 0.57 0.59  
Year to date precipitation 3.31 2.77  
Snow  
Snow 0.00 in 0.10 in 7.80 in (1975)
Month to date snowfall 1.1 0.7  
Year to date snowfall 3.0 10.1  
Since 1 July snowfall 3.1 16.6  
Snow Depth 0.00 in    
Sea Level Pressure  
Sea Level Pressure 30.50 in    
Wind  
Wind Speed 2 mph (SSW)    
Max Wind Speed 12 mph    
Max Gust Speed 15 mph    
Visibility 10 miles    
Events      
T = Trace of Precipitation, MM = Missing Value Source: NWS Daily Summary

Daily Weather History Graph

Daily Weather History Graph

Search for Another Location

Airport or City:

Trip Planner

Search our weather history database for the weather conditions in past years. The results will help you decide how hot, cold, wet, or windy it might be!

Date:

Astronomy

Mar. 09, 2012 Rise Set
Actual Time 6:42 AM CST 6:23 PM CST
Civil Twilight 6:15 AM CST 6:50 PM CST
Nautical Twilight 5:44 AM CST 7:21 PM CST
Astronomical Twilight 5:13 AM CST 7:52 PM CST
Moon 8:23 PM CST (3/9) 7:02 AM CST (3/9)
Length of Visible Light 12h 34m
Length of Day
11h 41m
Full, 97% of the Moon is Illuminated
Mar 9
Full
Mar 14
Last Quarter
Mar 22
New
Mar 30
First Quarter
Apr 6
Full

Hourly Weather History & Observations

Time (CST) Temp. Windchill Dew Point Humidity Pressure Visibility Wind Dir Wind Speed Gust Speed Precip Events Conditions
12:53 AM 30.0 °F - 27.0 °F 88% 30.55 in 8.0 mi Calm Calm - N/A   Clear
1:53 AM 30.9 °F - 27.0 °F 85% 30.54 in 10.0 mi Calm Calm - N/A   Clear
2:53 AM 28.0 °F - 26.1 °F 92% 30.53 in 10.0 mi Calm Calm - N/A   Clear
3:53 AM 28.9 °F - 26.1 °F 89% 30.53 in 10.0 mi Calm Calm - N/A   Clear
4:53 AM 28.9 °F - 25.0 °F 85% 30.54 in 10.0 mi Calm Calm - N/A   Clear
5:53 AM 26.1 °F - 24.1 °F 92% 30.56 in 10.0 mi Calm Calm - N/A   Clear
6:53 AM 27.0 °F - 23.0 °F 85% 30.57 in 10.0 mi Calm Calm - N/A   Clear
7:53 AM 33.1 °F - 26.1 °F 75% 30.59 in 10.0 mi Calm Calm - N/A   Clear
8:53 AM 39.9 °F - 23.0 °F 51% 30.59 in 10.0 mi Calm Calm - N/A   Clear
9:53 AM 45.0 °F - 21.9 °F 40% 30.58 in 10.0 mi Calm Calm - N/A   Clear
10:53 AM 50.0 °F - 24.1 °F 36% 30.57 in 10.0 mi WSW 3.5 mph - N/A   Clear
11:53 AM 54.0 °F - 25.0 °F 33% 30.56 in 10.0 mi West 4.6 mph - N/A   Clear
12:53 PM 57.9 °F - 24.1 °F 27% 30.53 in 10.0 mi Variable 3.5 mph - N/A   Clear
1:53 PM 61.0 °F - 21.0 °F 21% 30.49 in 10.0 mi WSW 4.6 mph - N/A   Clear
2:53 PM 63.0 °F - 16.0 °F 16% 30.47 in 10.0 mi Variable 4.6 mph - N/A   Clear
3:53 PM 63.0 °F - 18.0 °F 18% 30.44 in 10.0 mi Calm Calm - N/A   Clear
4:53 PM 63.0 °F - 19.0 °F 18% 30.42 in 10.0 mi Calm Calm - N/A   Clear
5:53 PM 60.1 °F - 23.0 °F 24% 30.41 in 10.0 mi South 5.8 mph - N/A   Clear
6:53 PM 55.9 °F - 24.1 °F 29% 30.41 in 10.0 mi South 4.6 mph - N/A   Clear
7:53 PM 52.0 °F - 26.1 °F 37% 30.41 in 10.0 mi South 4.6 mph - N/A   Clear
8:53 PM 51.1 °F - 27.0 °F 39% 30.40 in 10.0 mi South 5.8 mph - N/A   Clear
9:53 PM 48.0 °F - 28.0 °F 46% 30.40 in 10.0 mi SSW 5.8 mph - N/A   Clear
10:53 PM 46.9 °F - 28.0 °F 48% 30.41 in 10.0 mi SSW 6.9 mph - N/A   Clear
11:53 PM 45.0 °F 42.6 °F 28.0 °F 52% 30.41 in 10.0 mi SSW 4.6 mph - N/A   Clear